Regional Weather Roundup
Issued by NWS

Home | Current Version | Previous Version | Graphics & Text | Print | Product List | Glossary Off
Versions: 1 2 3 4 5 6 7 8 9 10 11 12 13 14 15 16 17 18 19 20 21 22 23 24 25 26 27 28 29 30 31 32 33 34 35 36 37 38 39 40 41 42 43 44 45 46 47 48 49 50

000
ASUS43 KMKX 301321
RWRWI

WISCONSIN REGIONAL WEATHER ROUNDUP
NATIONAL WEATHER SERVICE MILWAUKEE/SULLIVAN WI
800 AM CDT WED JUL 30 2014

NOTE: "FAIR" INDICATES FEW OR NO CLOUDS BELOW 12,000 FEET WITH NO
SIGNIFICANT WEATHER AND/OR OBSTRUCTIONS TO VISIBILITY.

WIZ001-002-006>008-014>016-023>028-301400-
NORTHWEST WISCONSIN

CITY           SKY/WX    TMP DP  RH WIND       PRES   REMARKS
SUPERIOR ARPT  CLOUDY    54  54 100 CALM      30.08S FOG
ASHLAND        CLOUDY    55  55 100 S5        30.08F FOG
HAYWARD        FOG       53  53 100 CALM      30.10R VSB 1/4
SIREN          SUNNY     56  56  98 CALM      30.09S
RICE LAKE      FOG       56  55  96 CALM      30.11R VSB<1/4
LADYSMITH      CLOUDY    55  55  97 CALM      30.12R FOG
EAU CLAIRE     CLOUDY    57  57 100 NE6       30.08R FOG
MENOMONIE      SUNNY     59  57  94 CALM      30.09R
NEW RICHMOND   MOSUNNY   60  59  95 CALM      30.09S
OSCEOLA        SUNNY     60  60 100 CALM      30.12R
$$

WIZ003>005-009-010-017-018-301400-
NORTH CENTRAL WISCONSIN

CITY           SKY/WX    TMP DP  RH WIND       PRES   REMARKS
WOODRUFF       FOG       56  54  94 CALM      30.09S VSB 1/4
RHINELANDER    CLOUDY    52  51  97 N3        30.09S FOG
EAGLE RIVER    FOG       51  51 100 CALM      30.08S VSB 1
LAND O LAKES   CLOUDY    53  53 100 CALM      30.09S FOG
PHILLIPS       CLOUDY    53  53 100 CALM      30.09S FOG
TOMAHAWK       FOG       51  50  97 CALM      30.10R VSB<1/4
MEDFORD        FOG       53  53  99 CALM      30.09R VSB<1/4
MERRILL        FOG       52  52 100 N3        30.09R VSB 1/4
$$

WIZ029-030-035-036-043>047-301400-
CENTRAL WISCONSIN

CITY           SKY/WX    TMP DP  RH WIND       PRES   REMARKS
WAUSAU         MOSUNNY   55  53  93 N5        30.07R
MOSINEE        SUNNY     55  54  94 N7        30.08R
MARSHFIELD     SUNNY     60  55  83 NE6       30.07R
STEVENS POINT  SUNNY     56  52  86 CALM      30.07S
WAUPACA        SUNNY     60  57  91 N5        30.06R
WAUTOMA        CLOUDY    60  57  89 NE7       30.07R
WISC RAPIDS    SUNNY     60  55  83 N6        30.08R
CAMP DOUGLAS   CLOUDY    57  57 100 NW6       30.07R
$$

WIZ011>013-019>022-031-037>040-048>050-301400-
NORTHEAST WISCONSIN

CITY           SKY/WX    TMP DP  RH WIND       PRES   REMARKS
ANTIGO         SUNNY     53  52  96 N3        30.08S
STURGEON BAY   SUNNY     59  54  82 N7        30.05R
GREEN BAY      SUNNY     62  59  90 NW3       30.05R
MANITOWOC      SUNNY     61  56  83 NE6       30.04S
APPLETON       PTSUNNY   61  57  88 N6        30.06R
CLINTONVILLE   SUNNY     59  54  82 N7        30.06R
OSHKOSH        CLOUDY    62  59  90 VRB5      30.05R FOG
$$

WIZ032>034-041-042-053>061-301400-
SOUTHWEST WISCONSIN

CITY           SKY/WX    TMP DP  RH WIND       PRES   REMARKS
LA CROSSE      SUNNY     63  59  87 NW5       30.07
SPARTA         FOG       55  54  99 CALM      30.08R VSB<1/4
VIROQUA        FAIR      58  58 100 CALM      30.08R
BOSCOBEL       FOG       59  58  96 CALM      30.07S VSB 1/4
PRAIRIE DU CHI SUNNY     63  59  86 W3        30.07R
PLATTEVILLE    FAIR      61  59  92 CALM      30.08R
$$

WIZ056-057-062-063-064-067-068-301400-
SOUTH CENTRAL WISCONSIN

CITY           SKY/WX    TMP DP  RH WIND       PRES   REMARKS
BARABOO/DELLS  SUNNY     59  56  89 CALM      30.06S
LONE ROCK      PTSUNNY   62  58  86 W3        30.07R
WATERTOWN      CLOUDY    57  57  97 N7        30.05R
MADISON        SUNNY     62  57  83 NW5       30.05R
MIDDLETON      FAIR      62  58  89 NW5       30.06R
MONROE         SUNNY     61  55  82 NW5       30.06R
JANESVILLE     SUNNY     63  57  82 NW5       30.05R
$$

WIZ051-052-058>065-066-070>072-301400-
SOUTHEAST WISCONSIN

CITY           SKY/WX    TMP DP  RH WIND       PRES   REMARKS
MILWAUKEE      PTSUNNY   62  56  80 NW9       30.04R
WAUKESHA       NOT AVBL
MILWAUKEE/TIMM PTSUNNY   61  55  82 N5        30.04R
RACINE         MOSUNNY   63  58  83 NW7       30.05R
BURLINGTON     MOSUNNY   60  57  89 N6        30.04R
KENOSHA        MOSUNNY   62  59  90 NW6       30.04R
FOND DU LAC    CLOUDY    63  59  87 NE6       30.05R
SHEBOYGAN      MOSUNNY   61  57  87 N7        30.04R
WEST BEND      PTSUNNY   61  55  82 N3        30.04R
JUNEAU         CLOUDY    57  57 100 CALM      30.06R FOG
$$

LSZ147-162-301400-
LAKE SUPERIOR

STATION/POSITION TIME  TEMP    WIND        PRES    WAVE
                       AIR SEA DIR/SP/G            HT/PER
                 (UTC) (F)     (DEG/KT/KT) (MB)    (FT/S)
W MID LAKE BUOY  1250   48 42  280/  6/  6 1017.9F   0
PORT WING        1200   52     180/  4/  6 1018.6S
SAXON HARBOR     1240          180/  2/  7 1018.6S
$$

LMZ867-665-643>646-301400-
LAKE MICHIGAN

STATION/POSITION TIME  TEMP    WIND        PRES    WAVE
                       AIR SEA DIR/SP/G            HT/PER
                 (UTC) (F)     (DEG/KT/KT) (MB)    (FT/S)
N MID LAKE BUOY  1250   55 54  340/ 12/ 14 1015.9R   1
NORTHPORT PIER   1200   58     320/ 10/ 13 1016.6R
SISTER BAY       1210   61     350/ 11/ 12   N/A
ALGOMA LAKESHORE 1106             CALM       N/A
KEWAUNEE LAKESHO 1300   63     360/  4/  6 1017.7R
SHEBOYGAN LAKESH 1300   60     340/ 10/ 13 1017.4R
PORT WASHINGTON  1240   63     340/  4/  9 1017.3R
ATWATER BUOY     1300   61     300/  8     1017.7R
MILWAUKEE LAKESH 1300   61     320/  5/  7   N/A
S MID LAKE BUOY  1250   60 60  300/  6/  8 1016.5R   1
KENOSHA   LAKESH 1300   62     300/  9/ 12 1016.6
$$

TC  - TEMPERATURE IN CELSIUS
VSB - VISIBILITY IN STATUTE MILES
WCI - WIND CHILL INDEX
HX  - HEAT INDEX



USA.gov is the U.S. government's official web portal to all federal, state and local government web resources and services.